Regional Weather Roundup
Issued by NWS

Home | Current Version | Previous Version | Graphics & Text | Print | Product List | Glossary On
Versions: 1 2 3 4 5 6 7 8 9 10 11 12 13 14 15 16 17 18 19 20 21 22 23 24 25 26 27 28 29 30 31 32 33 34 35 36 37 38 39 40 41 42 43 44 45 46 47 48 49 50
000
ASUS43 KLMK 151410
RWRKY
KENTUCKY REGIONAL WEATHER ROUNDUP
NATIONAL WEATHER SERVICE LOUISVILLE KY
1000 AM EDT TUE APR 15 2014

NOTE "FAIR" INDICATES FEW OR NO CLOUDS BELOW 12,000 FEET
WITH NO SIGNIFICANT WEATHER AND/OR OBSTRUCTIONS TO VISIBILITY.

KYZ001>023-026-027-061>063-070>075-151500-
WESTERN AND SOUTH CENTRAL KENTUCKY

CITY           SKY/WX    TMP DP  RH WIND       PRES   REMARKS
PADUCAH        MOSUNNY   39  25  57 N16       30.17R WCI  30
HENDERSON      PTSUNNY   36  23  60 N15G21    30.14R WCI  26
OWENSBORO      PTSUNNY   37  28  70 NW18      30.11R WCI  27
HOPKINSVILLE   MOSUNNY   37  28  70 NW16G24   30.11R WCI  28
BOWLING GREEN  MOSUNNY   39  27  62 NW16G24   30.07R WCI  30
GLASGOW        MOSUNNY   37  30  78 N9G21     30.04R WCI  30
$$

KYZ024-025-028>034-038-045-046-053-151500-
NORTH CENTRAL KENTUCKY

CITY           SKY/WX    TMP DP  RH WIND       PRES   REMARKS
LOUISVILLE/SDF CLOUDY    37  31  78 NW16G22   30.05R WCI  28
LOUISVILLE/LOU CLOUDY    39  31  72 NW16      30.05R WCI  30
FORT KNOX      PTSUNNY   36  29  75 NW15G21   30.03S WCI  27
$$

KYZ035>037-039>044-047>052-055>060-089>105-151500-
NORTHEAST KENTUCKY

CITY           SKY/WX    TMP DP  RH WIND       PRES   REMARKS
LEXINGTON      PTSUNNY   35  29  78 NW10      30.00R WCI  27
COVINGTON      PTSUNNY   33  27  78 NW14      30.00F WCI  23
FRANKFORT      CLOUDY    34  29  82 N12G21    30.00S WCI  25
$$

KYZ054-064>069-076>088-106>120-151500-
SOUTHEAST KENTUCKY

CITY           SKY/WX    TMP DP  RH WIND       PRES   REMARKS
JACKSON        LGT SNOW  31  29  92 NW9       29.93R VSB 3/4 WCI  23
LONDON         LGT SNOW  33  30  88 N10       29.95R VSB 3/4 WCI  25
SOMERSET       FLURRIES  34  32  93 N7        30.00S WCI  28
MIDDLESBORO    LGT SNOW  35  32  90 N8        29.93R WCI  28
MONTICELLO     FLURRIES  34  32  92 N10       30.01F WCI  26
$$




USA.gov is the U.S. government's official web portal to all federal, state and local government web resources and services.